| time (UTC) | temp F | wind direction | speed MPH | gust MPH | rain 1hr in | rain 24hr in | rain mn in | humidity % | barometer mb |
| 20260831041034 | 71 | 9 | 0.0 | 0.0 | 0.00 | 0.00 | 0.00 | 90 | 981.1 |
| 20260831040534 | 71 | 9 | 0.0 | 0.0 | 0.00 | 0.00 | 0.00 | 90 | 981.1 |
| 20260831040032 | 72 | 9 | 0.0 | 0.0 | 0.00 | 0.00 | 0.00 | 90 | 981.2 |
| 20260831035534 | 72 | 9 | 0.0 | 0.0 | 0.00 | 0.00 | 0.00 | 90 | 981.2 |
| 20260831035031 | 72 | 9 | 0.0 | 0.0 | 0.00 | 0.00 | 0.00 | 90 | 981.2 |
| 20260831034531 | 72 | 9 | 0.0 | 0.0 | 0.00 | 0.00 | 0.00 | 89 | 981.3 |
| 20260831034031 | 72 | 9 | 0.0 | 0.0 | 0.00 | 0.00 | 0.00 | 89 | 981.3 |
| 20260831033531 | 72 | 9 | 0.0 | 0.0 | 0.00 | 0.00 | 0.00 | 89 | 981.3 |
| 20260831033031 | 72 | 9 | 0.0 | 0.0 | 0.00 | 0.00 | 0.00 | 89 | 981.4 |
| 20260831032535 | 72 | 9 | 0.0 | 0.0 | 0.00 | 0.00 | 0.00 | 89 | 981.3 |
| 20260831032030 | 72 | 9 | 0.0 | 0.0 | 0.00 | 0.00 | 0.00 | 89 | 981.3 |
| 20260831031530 | 72 | 9 | 0.0 | 0.0 | 0.00 | 0.00 | 0.00 | 88 | 981.3 |
| 20260831031030 | 73 | 9 | 0.0 | 0.0 | 0.00 | 0.00 | 0.00 | 88 | 981.2 |
| 20260831030533 | 73 | 9 | 0.0 | 0.0 | 0.00 | 0.00 | 0.00 | 88 | 981.3 |
| 20260831030030 | 73 | 9 | 0.0 | 0.0 | 0.00 | 0.00 | 0.00 | 88 | 981.3 |
| 20260831025530 | 73 | 9 | 0.0 | 0.0 | 0.00 | 0.00 | 0.00 | 88 | 981.2 |
| 20260831025033 | 73 | 9 | 0.0 | 0.0 | 0.00 | 0.00 | 0.00 | 88 | 981.2 |
| 20260831024542 | 73 | 9 | 0.0 | 0.0 | 0.00 | 0.00 | 0.00 | 88 | 981.2 |
| 20260831024029 | 73 | 9 | 0.0 | 0.0 | 0.00 | 0.00 | 0.00 | 87 | 981.2 |
| 20260831023530 | 73 | 9 | 0.0 | 0.0 | 0.00 | 0.00 | 0.00 | 87 | 981.2 |
| 20260831023002 | 74 | 9 | 0.0 | 0.0 | 0.00 | 0.00 | 0.00 | 87 | 981.3 |
| 20260831022502 | 74 | 9 | 0.0 | 0.0 | 0.00 | 0.00 | 0.00 | 87 | 981.3 |
| 20260831022002 | 74 | 9 | 0.0 | 0.0 | 0.00 | 0.00 | 0.00 | 87 | 981.3 |
| 20260831021502 | 74 | 9 | 0.0 | 0.0 | 0.00 | 0.00 | 0.00 | 86 | 981.3 |
| 20260831021002 | 74 | 9 | 0.0 | 0.0 | 0.00 | 0.00 | 0.00 | 86 | 981.3 |
| 20260831020502 | 74 | 9 | 0.0 | 0.0 | 0.00 | 0.00 | 0.00 | 86 | 981.3 |
| 20260831020002 | 74 | 9 | 0.0 | 0.0 | 0.00 | 0.00 | 0.00 | 86 | 981.3 |
| 20260831015502 | 75 | 9 | 0.0 | 0.0 | 0.00 | 0.00 | 0.00 | 86 | 981.2 |
| 20260831015003 | 75 | 9 | 0.0 | 0.0 | 0.00 | 0.00 | 0.00 | 86 | 981.2 |
| 20260831014503 | 75 | 9 | 0.0 | 0.0 | 0.00 | 0.00 | 0.00 | 85 | 981.1 |
| 20260831014002 | 75 | 9 | 0.0 | 0.0 | 0.00 | 0.00 | 0.00 | 85 | 981.1 |
| 20260831013501 | 75 | 9 | 0.0 | 0.0 | 0.00 | 0.00 | 0.00 | 85 | 981.1 |
| 20260831013104 | 75 | 9 | 0.0 | 0.0 | 0.00 | 0.00 | 0.00 | 85 | 981.0 |
| 20260831012601 | 76 | 9 | 0.0 | 0.0 | 0.00 | 0.00 | 0.00 | 85 | 981.0 |
| 20260831012101 | 76 | 9 | 0.0 | 0.0 | 0.00 | 0.00 | 0.00 | 85 | 981.0 |
| 20260831011612 | 76 | 9 | 0.0 | 0.0 | 0.00 | 0.00 | 0.00 | 85 | 980.8 |
| 20260831011059 | 76 | 9 | 0.0 | 0.0 | 0.00 | 0.00 | 0.00 | 85 | 980.7 |
| 20260831010559 | 76 | 9 | 0.0 | 0.0 | 0.00 | 0.00 | 0.00 | 84 | 980.7 |
| 20260831010100 | 76 | 9 | 0.0 | 0.0 | 0.00 | 0.00 | 0.00 | 84 | 980.6 |
| 20260831005600 | 77 | 9 | 0.0 | 0.0 | 0.00 | 0.00 | 0.00 | 84 | 980.5 |
| 20260831005102 | 77 | 9 | 0.0 | 0.0 | 0.00 | 0.00 | 0.00 | 84 | 980.5 |
| 20260831004600 | 77 | 9 | 0.0 | 1.0 | 0.00 | 0.00 | 0.00 | 84 | 980.4 |
| 20260831004059 | 77 | 9 | 0.0 | 1.0 | 0.00 | 0.00 | 0.00 | 83 | 980.3 |
| 20260831003558 | 78 | 9 | 0.0 | 0.0 | 0.00 | 0.00 | 0.00 | 83 | 980.3 |
| 20260831003101 | 78 | 9 | 0.0 | 2.0 | 0.00 | 0.00 | 0.00 | 83 | 980.3 |
| 20260831002558 | 78 | 9 | 0.0 | 0.0 | 0.00 | 0.00 | 0.00 | 82 | 980.3 |
| 20260831002058 | 79 | 9 | 0.0 | 0.0 | 0.00 | 0.00 | 0.00 | 81 | 980.2 |
| 20260831001601 | 79 | 9 | 0.0 | 0.0 | 0.00 | 0.00 | 0.00 | 81 | 980.1 |
| 20260831001058 | 79 | 9 | 0.0 | 0.0 | 0.00 | 0.00 | 0.00 | 80 | 980.2 |
| 20260831000558 | 80 | 9 | 0.0 | 0.0 | 0.00 | 0.00 | 0.00 | 80 | 980.2 |
| 20260831000058 | 80 | 9 | 0.0 | 2.0 | 0.00 | 0.00 | 0.00 | 79 | 980.2 |
| 20260830235558 | 80 | 9 | 0.0 | 2.0 | 0.00 | 0.00 | 0.00 | 79 | 980.1 |
| 20260830235100 | 81 | 9 | 0.0 | 0.0 | 0.00 | 0.00 | 0.00 | 78 | 980.2 |
| 20260830234611 | 81 | 9 | 0.0 | 0.0 | 0.00 | 0.00 | 0.00 | 76 | 980.1 |
| 20260830234057 | 82 | 9 | 0.0 | 0.0 | 0.00 | 0.00 | 0.00 | 76 | 980.1 |
| 20260830233557 | 82 | 9 | 0.0 | 1.0 | 0.00 | 0.00 | 0.00 | 76 | 980.0 |
| 20260830233056 | 82 | 9 | 0.0 | 0.0 | 0.00 | 0.00 | 0.00 | 75 | 980.0 |
| 20260830232557 | 83 | 9 | 0.0 | 1.0 | 0.00 | 0.00 | 0.00 | 75 | 980.1 |
| 20260830232057 | 83 | 9 | 0.0 | 4.0 | 0.00 | 0.00 | 0.00 | 75 | 980.1 |
| 20260830231558 | 83 | 9 | 0.0 | 4.0 | 0.00 | 0.00 | 0.00 | 74 | 980.0 |
| 20260830231056 | 83 | 9 | 0.0 | 2.0 | 0.00 | 0.00 | 0.00 | 75 | 980.0 |
| 20260830230556 | 83 | 9 | 0.0 | 2.0 | 0.00 | 0.00 | 0.00 | 74 | 979.9 |
| 20260830225556 | 83 | 9 | 0.0 | 2.0 | 0.00 | 0.00 | 0.00 | 74 | 979.9 |
| 20260830225056 | 83 | 9 | 0.0 | 3.0 | 0.00 | 0.00 | 0.00 | 74 | 979.9 |
| 20260830224557 | 83 | 10 | 0.0 | 1.0 | 0.00 | 0.00 | 0.00 | 73 | 979.9 |
| 20260830224059 | 83 | 10 | 0.0 | 0.0 | 0.00 | 0.00 | 0.00 | 73 | 979.9 |
| 20260830223557 | 84 | 10 | 0.0 | 1.0 | 0.00 | 0.00 | 0.00 | 73 | 979.9 |
| 20260830223057 | 84 | 10 | 0.0 | 2.0 | 0.00 | 0.00 | 0.00 | 72 | 979.9 |
| 20260830222554 | 84 | 10 | 0.0 | 4.0 | 0.00 | 0.00 | 0.00 | 72 | 979.9 |
| 20260830222054 | 84 | 10 | 0.0 | 2.0 | 0.00 | 0.00 | 0.00 | 71 | 979.8 |
| 20260830221555 | 85 | 10 | 0.0 | 2.0 | 0.00 | 0.00 | 0.00 | 71 | 979.8 |
| 20260830221054 | 85 | 10 | 0.0 | 3.0 | 0.00 | 0.00 | 0.00 | 70 | 979.9 |
| 20260830220554 | 85 | 10 | 0.0 | 6.0 | 0.00 | 0.00 | 0.00 | 69 | 979.9 |
| 20260830220054 | 86 | 10 | 2.0 | 6.0 | 0.00 | 0.00 | 0.00 | 68 | 979.8 |
| 20260830215554 | 86 | 39 | 0.0 | 4.0 | 0.00 | 0.00 | 0.00 | 68 | 979.8 |
| 20260830215054 | 86 | 39 | 0.0 | 5.0 | 0.00 | 0.00 | 0.00 | 67 | 979.7 |
| 20260830214603 | 87 | 40 | 1.0 | 7.0 | 0.00 | 0.00 | 0.00 | 67 | 979.8 |
| 20260830214053 | 87 | 34 | 1.0 | 7.0 | 0.00 | 0.00 | 0.00 | 66 | 979.7 |
| 20260830213553 | 88 | 36 | 2.0 | 6.0 | 0.00 | 0.00 | 0.00 | 65 | 979.7 |
| 20260830213055 | 87 | 52 | 1.0 | 6.0 | 0.00 | 0.00 | 0.00 | 66 | 979.7 |
| 20260830212552 | 87 | 229 | 1.0 | 6.0 | 0.00 | 0.00 | 0.00 | 66 | 979.7 |
| 20260830212052 | 87 | 190 | 2.0 | 5.0 | 0.00 | 0.00 | 0.00 | 66 | 979.9 |
| 20260830211559 | 87 | 32 | 1.0 | 5.0 | 0.00 | 0.00 | 0.00 | 66 | 979.8 |
| 20260830211054 | 88 | 253 | 1.0 | 7.0 | 0.00 | 0.00 | 0.00 | 66 | 979.8 |
| 20260830210552 | 88 | 5 | 2.0 | 7.0 | 0.00 | 0.00 | 0.00 | 66 | 979.9 |
| 20260830210051 | 87 | 271 | 1.0 | 4.0 | 0.00 | 0.00 | 0.00 | 67 | 979.8 |
| 20260830205550 | 87 | 271 | 0.0 | 4.0 | 0.00 | 0.00 | 0.00 | 65 | 979.9 |
| 20260830205050 | 88 | 12 | 2.0 | 4.0 | 0.00 | 0.00 | 0.00 | 65 | 979.9 |
| 20260830204550 | 88 | 12 | 2.0 | 4.0 | 0.00 | 0.00 | 0.00 | 65 | 979.9 |
| 20260830204050 | 88 | 12 | 1.0 | 4.0 | 0.00 | 0.00 | 0.00 | 65 | 980.0 |
| 20260830203550 | 88 | 268 | 1.0 | 3.0 | 0.00 | 0.00 | 0.00 | 66 | 979.9 |
| 20260830203049 | 88 | 268 | 1.0 | 6.0 | 0.00 | 0.00 | 0.00 | 66 | 980.0 |
| 20260830202548 | 88 | 268 | 1.0 | 9.0 | 0.00 | 0.00 | 0.00 | 65 | 980.1 |
| 20260830202047 | 88 | 38 | 2.0 | 9.0 | 0.00 | 0.00 | 0.00 | 65 | 980.1 |
| 20260830201608 | 88 | 271 | 2.0 | 7.0 | 0.00 | 0.00 | 0.00 | 66 | 980.2 |
| 20260830201051 | 87 | 272 | 1.0 | 4.0 | 0.00 | 0.00 | 0.00 | 69 | 980.2 |
| 20260830200548 | 86 | 22 | 1.0 | 3.0 | 0.00 | 0.00 | 0.00 | 68 | 980.2 |
| 20260830200047 | 86 | 21 | 0.0 | 4.0 | 0.00 | 0.00 | 0.00 | 67 | 980.2 |
| 20260830195550 | 87 | 21 | 1.0 | 4.0 | 0.00 | 0.00 | 0.00 | 66 | 980.3 |
| 20260830195046 | 87 | 22 | 1.0 | 5.0 | 0.00 | 0.00 | 0.00 | 67 | 980.3 |
| 20260830194547 | 86 | 26 | 1.0 | 5.0 | 0.00 | 0.00 | 0.00 | 66 | 980.4 |
| 20260830194045 | 87 | 272 | 1.0 | 6.0 | 0.00 | 0.00 | 0.00 | 66 | 980.5 |
| 20260830193545 | 87 | 271 | 2.0 | 6.0 | 0.00 | 0.00 | 0.00 | 64 | 980.6 |
| 20260830193046 | 87 | 271 | 0.0 | 4.0 | 0.00 | 0.00 | 0.00 | 65 | 980.7 |
| 20260830192542 | 87 | 271 | 1.0 | 3.0 | 0.00 | 0.00 | 0.00 | 64 | 980.7 |
| 20260830192042 | 87 | 271 | 0.0 | 6.0 | 0.00 | 0.00 | 0.00 | 63 | 980.8 |
| 20260830191548 | 87 | 22 | 0.0 | 5.0 | 0.00 | 0.00 | 0.00 | 63 | 980.8 |
| 20260830191041 | 88 | 9 | 1.0 | 5.0 | 0.00 | 0.00 | 0.00 | 62 | 980.9 |
| 20260830190541 | 88 | 57 | 0.0 | 6.0 | 0.00 | 0.00 | 0.00 | 62 | 981.0 |
| 20260830190040 | 88 | 57 | 0.0 | 6.0 | 0.00 | 0.00 | 0.00 | 61 | 980.9 |
| 20260830185540 | 89 | 15 | 1.0 | 5.0 | 0.00 | 0.00 | 0.00 | 60 | 981.0 |
| 20260830185041 | 89 | 270 | 0.0 | 7.0 | 0.00 | 0.00 | 0.00 | 58 | 981.0 |
| 20260830184542 | 90 | 270 | 2.0 | 7.0 | 0.00 | 0.00 | 0.00 | 58 | 981.1 |
| 20260830184041 | 89 | 11 | 2.0 | 7.0 | 0.00 | 0.00 | 0.00 | 61 | 981.2 |
| 20260830183536 | 89 | 61 | 1.0 | 8.0 | 0.00 | 0.00 | 0.00 | 60 | 981.2 |
| 20260830183035 | 90 | 10 | 2.0 | 6.0 | 0.00 | 0.00 | 0.00 | 59 | 981.4 |
| 20260830182535 | 89 | 5 | 3.0 | 6.0 | 0.00 | 0.00 | 0.00 | 61 | 981.4 |
| 20260830182034 | 89 | 270 | 1.0 | 4.0 | 0.00 | 0.00 | 0.00 | 62 | 981.5 |
| 20260830181535 | 89 | 270 | 2.0 | 4.0 | 0.00 | 0.00 | 0.00 | 62 | 981.7 |
| 20260830181031 | 89 | 271 | 0.0 | 6.0 | 0.00 | 0.00 | 0.00 | 64 | 981.8 |
| 20260830180531 | 89 | 269 | 2.0 | 6.0 | 0.00 | 0.00 | 0.00 | 60 | 981.9 |
| 20260830180031 | 88 | 11 | 0.0 | 3.0 | 0.00 | 0.00 | 0.00 | 61 | 982.0 |
| 20260830175529 | 89 | 11 | 1.0 | 3.0 | 0.00 | 0.00 | 0.00 | 62 | 982.0 |
| 20260830175034 | 89 | 11 | 1.0 | 3.0 | 0.00 | 0.00 | 0.00 | 61 | 982.2 |
| 20260830174529 | 88 | 12 | 0.0 | 6.0 | 0.00 | 0.00 | 0.00 | 63 | 982.2 |
| 20260830174026 | 88 | 12 | 2.0 | 6.0 | 0.00 | 0.00 | 0.00 | 64 | 982.2 |
| 20260830173525 | 87 | 271 | 2.0 | 8.0 | 0.00 | 0.00 | 0.00 | 65 | 982.4 |
| 20260830173030 | 87 | 271 | 2.0 | 8.0 | 0.00 | 0.00 | 0.00 | 63 | 982.6 |
| 20260830172523 | 87 | 273 | 0.0 | 6.0 | 0.00 | 0.00 | 0.00 | 65 | 982.7 |
| 20260830172022 | 87 | 273 | 2.0 | 7.0 | 0.00 | 0.00 | 0.00 | 65 | 982.8 |
| 20260830171521 | 87 | 275 | 2.0 | 4.0 | 0.00 | 0.00 | 0.00 | 65 | 983.0 |
| 20260830171020 | 87 | 275 | 1.0 | 6.0 | 0.00 | 0.00 | 0.00 | 65 | 983.1 |
| 20260830170519 | 86 | 271 | 2.0 | 6.0 | 0.00 | 0.00 | 0.00 | 69 | 983.3 |
| 20260830170019 | 86 | 23 | 1.0 | 5.0 | 0.00 | 0.00 | 0.00 | 68 | 983.3 |
| 20260830165516 | 85 | 25 | 2.0 | 5.0 | 0.00 | 0.00 | 0.00 | 69 | 983.4 |
| 20260830165016 | 85 | 61 | 0.0 | 3.0 | 0.00 | 0.00 | 0.00 | 66 | 983.5 |
| 20260830164516 | 84 | 61 | 0.0 | 5.0 | 0.00 | 0.00 | 0.00 | 67 | 983.5 |
| 20260830164019 | 84 | 271 | 2.0 | 5.0 | 0.00 | 0.00 | 0.00 | 69 | 983.5 |
| 20260830163516 | 84 | 19 | 1.0 | 5.0 | 0.00 | 0.00 | 0.00 | 67 | 983.6 |
| 20260830163017 | 85 | 12 | 1.0 | 5.0 | 0.00 | 0.00 | 0.00 | 69 | 983.6 |
| 20260830162516 | 85 | 13 | 2.0 | 5.0 | 0.00 | 0.00 | 0.00 | 68 | 983.6 |
| 20260830162015 | 85 | 41 | 1.0 | 5.0 | 0.00 | 0.00 | 0.00 | 69 | 983.6 |
| 20260830161513 | 85 | 360 | 1.0 | 5.0 | 0.00 | 0.00 | 0.00 | 69 | 983.6 |
| 20260830161013 | 84 | 360 | 2.0 | 5.0 | 0.00 | 0.00 | 0.00 | 69 | 983.6 |
| 20260830160511 | 84 | 5 | 2.0 | 5.0 | 0.00 | 0.00 | 0.00 | 70 | 983.7 |
| 20260830160011 | 83 | 270 | 2.0 | 4.0 | 0.00 | 0.00 | 0.00 | 71 | 983.7 |
| 20260830155510 | 83 | 270 | 2.0 | 6.0 | 0.00 | 0.00 | 0.00 | 72 | 983.8 |
| 20260830155008 | 82 | 270 | 2.0 | 6.0 | 0.00 | 0.00 | 0.00 | 74 | 983.8 |
| 20260830154507 | 82 | 270 | 0.0 | 3.0 | 0.00 | 0.00 | 0.00 | 73 | 983.9 |
| 20260830154008 | 82 | 270 | 0.0 | 4.0 | 0.00 | 0.00 | 0.00 | 72 | 983.9 |
| 20260830153508 | 82 | 270 | 1.0 | 5.0 | 0.00 | 0.00 | 0.00 | 73 | 983.9 |
| 20260830153013 | 82 | 270 | 1.0 | 5.0 | 0.00 | 0.00 | 0.00 | 73 | 983.9 |
| 20260830152503 | 81 | 360 | 1.0 | 3.0 | 0.00 | 0.00 | 0.00 | 74 | 983.9 |
| 20260830152002 | 81 | 360 | 0.0 | 3.0 | 0.00 | 0.00 | 0.00 | 76 | 983.9 |
| 20260830151507 | 81 | 360 | 0.0 | 2.0 | 0.00 | 0.00 | 0.00 | 74 | 983.9 |
| 20260830151002 | 81 | 360 | 0.0 | 3.0 | 0.00 | 0.00 | 0.00 | 73 | 983.9 |
| 20260830150502 | 81 | 360 | 0.0 | 5.0 | 0.00 | 0.00 | 0.00 | 74 | 983.9 |
| 20260830150002 | 81 | 360 | 2.0 | 5.0 | 0.00 | 0.00 | 0.00 | 74 | 983.9 |
| 20260830145500 | 81 | 12 | 1.0 | 5.0 | 0.00 | 0.00 | 0.00 | 75 | 984.0 |
| 20260830145100 | 81 | 5 | 1.0 | 4.0 | 0.00 | 0.00 | 0.00 | 75 | 984.0 |
| 20260830144558 | 80 | 5 | 0.0 | 2.0 | 0.00 | 0.00 | 0.00 | 77 | 984.0 |
| 20260830144057 | 80 | 5 | 0.0 | 5.0 | 0.00 | 0.00 | 0.00 | 78 | 984.0 |
| 20260830143557 | 79 | 5 | 2.0 | 5.0 | 0.00 | 0.00 | 0.00 | 79 | 983.9 |
| 20260830143102 | 79 | 13 | 1.0 | 5.0 | 0.00 | 0.00 | 0.00 | 79 | 983.9 |
| 20260830142553 | 78 | 13 | 1.0 | 5.0 | 0.00 | 0.00 | 0.00 | 80 | 984.0 |
| 20260830142052 | 78 | 14 | 0.0 | 4.0 | 0.00 | 0.00 | 0.00 | 81 | 983.9 |
| 20260830141553 | 77 | 14 | 0.0 | 4.0 | 0.00 | 0.00 | 0.00 | 82 | 984.1 |
| 20260830141049 | 77 | 14 | 0.0 | 3.0 | 0.00 | 0.00 | 0.00 | 83 | 984.1 |
| 20260830140554 | 76 | 14 | 0.0 | 3.0 | 0.00 | 0.00 | 0.00 | 84 | 984.1 |
| 20260830140046 | 76 | 14 | 0.0 | 2.0 | 0.00 | 0.00 | 0.00 | 87 | 984.1 |
| 20260830135545 | 75 | 14 | 0.0 | 2.0 | 0.00 | 0.00 | 0.00 | 88 | 984.2 |
| 20260830135045 | 74 | 14 | 0.0 | 2.0 | 0.00 | 0.00 | 0.00 | 89 | 984.2 |
| 20260830134544 | 74 | 14 | 0.0 | 2.0 | 0.00 | 0.00 | 0.00 | 90 | 984.3 |
| 20260830134042 | 73 | 14 | 0.0 | 2.0 | 0.00 | 0.00 | 0.00 | 91 | 984.4 |
| 20260830133541 | 73 | 14 | 0.0 | 2.0 | 0.00 | 0.00 | 0.00 | 92 | 984.4 |
| 20260830133044 | 72 | 14 | 0.0 | 2.0 | 0.00 | 0.00 | 0.00 | 92 | 984.5 |
| 20260830132538 | 72 | 14 | 0.0 | 1.0 | 0.00 | 0.00 | 0.00 | 93 | 984.6 |
| 20260830132037 | 72 | 14 | 0.0 | 3.0 | 0.00 | 0.00 | 0.00 | 93 | 984.5 |
| 20260830131537 | 71 | 14 | 1.0 | 3.0 | 0.00 | 0.00 | 0.00 | 94 | 984.5 |
| 20260830131036 | 71 | 14 | 0.0 | 3.0 | 0.00 | 0.00 | 0.00 | 94 | 984.6 |
| 20260830130536 | 70 | 14 | 0.0 | 3.0 | 0.00 | 0.00 | 0.00 | 94 | 984.7 |
| 20260830130040 | 70 | 14 | 0.0 | 0.0 | 0.00 | 0.00 | 0.00 | 94 | 984.7 |
| 20260830125535 | 70 | 14 | 0.0 | 2.0 | 0.00 | 0.00 | 0.00 | 94 | 984.7 |
| 20260830125035 | 69 | 14 | 0.0 | 2.0 | 0.00 | 0.00 | 0.00 | 94 | 984.8 |
| 20260830124535 | 69 | 14 | 0.0 | 1.0 | 0.00 | 0.00 | 0.00 | 94 | 984.7 |
| 20260830124036 | 69 | 14 | 0.0 | 2.0 | 0.00 | 0.00 | 0.00 | 94 | 984.5 |
| 20260830123534 | 69 | 14 | 0.0 | 2.0 | 0.00 | 0.00 | 0.00 | 95 | 984.6 |
| 20260830123035 | 68 | 14 | 0.0 | 3.0 | 0.00 | 0.00 | 0.00 | 95 | 984.6 |
| 20260830122533 | 68 | 14 | 0.0 | 3.0 | 0.00 | 0.00 | 0.00 | 95 | 984.5 |
| 20260830122033 | 68 | 14 | 0.0 | 3.0 | 0.00 | 0.00 | 0.00 | 95 | 984.5 |
| 20260830121533 | 68 | 14 | 0.0 | 3.0 | 0.00 | 0.00 | 0.00 | 94 | 984.5 |
| 20260830121032 | 67 | 14 | 0.0 | 0.0 | 0.00 | 0.00 | 0.00 | 94 | 984.5 |
| 20260830120536 | 67 | 14 | 0.0 | 0.0 | 0.00 | 0.00 | 0.00 | 95 | 984.5 |
| 20260830120036 | 67 | 14 | 0.0 | 0.0 | 0.00 | 0.00 | 0.00 | 94 | 984.4 |
| 20260830115536 | 67 | 14 | 0.0 | 0.0 | 0.00 | 0.00 | 0.00 | 95 | 984.5 |
| 20260830115032 | 66 | 14 | 0.0 | 0.0 | 0.00 | 0.00 | 0.00 | 94 | 984.4 |
| 20260830114530 | 66 | 14 | 0.0 | 0.0 | 0.00 | 0.00 | 0.00 | 94 | 984.4 |
| 20260830114034 | 66 | 14 | 0.0 | 0.0 | 0.00 | 0.00 | 0.00 | 94 | 984.3 |
| 20260830113529 | 65 | 14 | 0.0 | 0.0 | 0.00 | 0.00 | 0.00 | 94 | 984.3 |
| 20260830113031 | 65 | 14 | 0.0 | 0.0 | 0.00 | 0.00 | 0.00 | 94 | 984.3 |
| 20260830112528 | 65 | 14 | 0.0 | 0.0 | 0.00 | 0.00 | 0.00 | 94 | 984.2 |
| 20260830112029 | 65 | 14 | 0.0 | 0.0 | 0.00 | 0.00 | 0.00 | 94 | 984.1 |
| 20260830111529 | 65 | 14 | 0.0 | 0.0 | 0.00 | 0.00 | 0.00 | 94 | 984.0 |
| 20260830111027 | 65 | 14 | 0.0 | 0.0 | 0.00 | 0.00 | 0.00 | 94 | 983.9 |
| 20260830110527 | 65 | 14 | 0.0 | 0.0 | 0.00 | 0.00 | 0.00 | 94 | 983.9 |
| 20260830110026 | 65 | 14 | 0.0 | 0.0 | 0.00 | 0.00 | 0.00 | 94 | 983.8 |
| 20260830105526 | 65 | 14 | 0.0 | 0.0 | 0.00 | 0.00 | 0.00 | 94 | 983.8 |
| 20260830105026 | 65 | 14 | 0.0 | 0.0 | 0.00 | 0.00 | 0.00 | 94 | 983.8 |
| 20260830104526 | 65 | 14 | 0.0 | 0.0 | 0.00 | 0.00 | 0.00 | 94 | 983.7 |
| 20260830104025 | 65 | 14 | 0.0 | 0.0 | 0.00 | 0.00 | 0.00 | 94 | 983.6 |
| 20260830103528 | 65 | 14 | 0.0 | 0.0 | 0.00 | 0.00 | 0.00 | 94 | 983.6 |
| 20260830103026 | 65 | 14 | 0.0 | 0.0 | 0.00 | 0.00 | 0.00 | 94 | 983.4 |
| 20260830102526 | 66 | 14 | 0.0 | 0.0 | 0.00 | 0.00 | 0.00 | 94 | 983.4 |
| 20260830102023 | 65 | 14 | 0.0 | 0.0 | 0.00 | 0.00 | 0.00 | 94 | 983.3 |
| 20260830101524 | 66 | 14 | 0.0 | 0.0 | 0.00 | 0.00 | 0.00 | 94 | 983.3 |
| 20260830101023 | 66 | 14 | 0.0 | 0.0 | 0.00 | 0.00 | 0.00 | 94 | 983.3 |
| 20260830100523 | 66 | 14 | 0.0 | 0.0 | 0.00 | 0.00 | 0.00 | 94 | 983.3 |
| 20260830100027 | 66 | 14 | 0.0 | 0.0 | 0.00 | 0.00 | 0.00 | 93 | 983.4 |
| 20260830095522 | 66 | 14 | 0.0 | 0.0 | 0.00 | 0.00 | 0.00 | 93 | 983.3 |
| 20260830095022 | 66 | 14 | 0.0 | 0.0 | 0.00 | 0.00 | 0.00 | 93 | 983.3 |
| 20260830094548 | 66 | 14 | 0.0 | 0.0 | 0.00 | 0.00 | 0.00 | 93 | 983.3 |
| 20260830094021 | 66 | 14 | 0.0 | 0.0 | 0.00 | 0.00 | 0.00 | 93 | 983.3 |
| 20260830093523 | 66 | 14 | 0.0 | 0.0 | 0.00 | 0.00 | 0.00 | 93 | 983.3 |
| 20260830093020 | 66 | 14 | 0.0 | 0.0 | 0.00 | 0.00 | 0.00 | 93 | 983.2 |
| 20260830092519 | 66 | 14 | 0.0 | 0.0 | 0.00 | 0.00 | 0.00 | 93 | 983.1 |
| 20260830092022 | 66 | 14 | 0.0 | 0.0 | 0.00 | 0.00 | 0.00 | 93 | 983.1 |
| 20260830091519 | 66 | 14 | 0.0 | 0.0 | 0.00 | 0.00 | 0.00 | 93 | 983.3 |
| 20260830091021 | 66 | 14 | 0.0 | 0.0 | 0.00 | 0.00 | 0.00 | 93 | 983.2 |
| 20260830090518 | 66 | 14 | 0.0 | 0.0 | 0.00 | 0.00 | 0.00 | 93 | 983.2 |
| 20260830090038 | 67 | 14 | 0.0 | 0.0 | 0.00 | 0.00 | 0.00 | 93 | 983.2 |
| 20260830085517 | 67 | 14 | 0.0 | 0.0 | 0.00 | 0.00 | 0.00 | 93 | 983.3 |
| 20260830085016 | 67 | 14 | 0.0 | 0.0 | 0.00 | 0.00 | 0.00 | 93 | 983.3 |
| 20260830084516 | 67 | 14 | 0.0 | 0.0 | 0.00 | 0.00 | 0.00 | 93 | 983.3 |
| 20260830084019 | 67 | 14 | 0.0 | 0.0 | 0.00 | 0.00 | 0.00 | 93 | 983.3 |
| 20260830083516 | 67 | 14 | 0.0 | 0.0 | 0.00 | 0.00 | 0.00 | 93 | 983.3 |
| 20260830083015 | 67 | 14 | 0.0 | 0.0 | 0.00 | 0.00 | 0.00 | 93 | 983.3 |
| 20260830082513 | 67 | 14 | 0.0 | 0.0 | 0.00 | 0.00 | 0.00 | 93 | 983.4 |
| 20260830082013 | 67 | 14 | 0.0 | 0.0 | 0.00 | 0.00 | 0.00 | 93 | 983.4 |
| 20260830081513 | 67 | 14 | 0.0 | 0.0 | 0.00 | 0.00 | 0.00 | 93 | 983.5 |
| 20260830081013 | 67 | 14 | 0.0 | 0.0 | 0.00 | 0.00 | 0.00 | 93 | 983.5 |
| 20260830080512 | 67 | 14 | 0.0 | 0.0 | 0.00 | 0.00 | 0.00 | 93 | 983.5 |
| 20260830080029 | 67 | 14 | 0.0 | 0.0 | 0.00 | 0.00 | 0.00 | 93 | 983.4 |
| 20260830075512 | 67 | 14 | 0.0 | 0.0 | 0.00 | 0.00 | 0.00 | 93 | 983.4 |
| 20260830075013 | 68 | 14 | 0.0 | 0.0 | 0.00 | 0.00 | 0.00 | 93 | 983.5 |
| 20260830074510 | 68 | 14 | 0.0 | 0.0 | 0.00 | 0.00 | 0.00 | 92 | 983.5 |
| 20260830074010 | 68 | 14 | 0.0 | 0.0 | 0.00 | 0.00 | 0.00 | 92 | 983.5 |
| 20260830073510 | 68 | 14 | 0.0 | 0.0 | 0.00 | 0.00 | 0.00 | 92 | 983.5 |
| 20260830073009 | 68 | 14 | 0.0 | 0.0 | 0.00 | 0.00 | 0.00 | 92 | 983.5 |
| 20260830072509 | 68 | 14 | 0.0 | 0.0 | 0.00 | 0.00 | 0.00 | 92 | 983.4 |
| 20260830072009 | 68 | 14 | 0.0 | 0.0 | 0.00 | 0.00 | 0.00 | 92 | 983.4 |
| 20260830071512 | 68 | 14 | 0.0 | 0.0 | 0.00 | 0.00 | 0.00 | 92 | 983.3 |
| 20260830071007 | 68 | 14 | 0.0 | 0.0 | 0.00 | 0.00 | 0.00 | 92 | 983.4 |
| 20260830070509 | 68 | 14 | 0.0 | 0.0 | 0.00 | 0.00 | 0.00 | 92 | 983.4 |
| 20260830070006 | 69 | 14 | 0.0 | 0.0 | 0.00 | 0.00 | 0.00 | 92 | 983.5 |
| 20260830065509 | 69 | 14 | 0.0 | 0.0 | 0.00 | 0.00 | 0.00 | 92 | 983.4 |
| 20260830065006 | 69 | 14 | 0.0 | 0.0 | 0.00 | 0.00 | 0.00 | 92 | 983.5 |
| 20260830064514 | 69 | 14 | 0.0 | 0.0 | 0.00 | 0.00 | 0.00 | 92 | 983.5 |
| 20260830064006 | 69 | 14 | 0.0 | 0.0 | 0.00 | 0.00 | 0.00 | 91 | 983.5 |
| 20260830063503 | 69 | 14 | 0.0 | 0.0 | 0.00 | 0.00 | 0.00 | 91 | 983.5 |
| 20260830063002 | 69 | 14 | 0.0 | 0.0 | 0.00 | 0.00 | 0.00 | 91 | 983.5 |
| 20260830062501 | 70 | 14 | 0.0 | 0.0 | 0.00 | 0.00 | 0.00 | 91 | 983.6 |
| 20260830062000 | 70 | 14 | 0.0 | 0.0 | 0.00 | 0.00 | 0.00 | 91 | 983.7 |
| 20260830061636 | 70 | 14 | 0.0 | 0.0 | 0.00 | 0.00 | 0.00 | 91 | 983.7 |
| 20260830061059 | 70 | 14 | 0.0 | 0.0 | 0.00 | 0.00 | 0.00 | 91 | 983.8 |
| 20260830060601 | 70 | 14 | 0.0 | 0.0 | 0.00 | 0.00 | 0.00 | 91 | 983.8 |
| 20260830060059 | 70 | 14 | 0.0 | 0.0 | 0.00 | 0.00 | 0.00 | 91 | 983.8 |
| 20260830055558 | 70 | 14 | 0.0 | 2.0 | 0.00 | 0.00 | 0.00 | 91 | 983.8 |
| 20260830055058 | 70 | 14 | 0.0 | 2.0 | 0.00 | 0.00 | 0.00 | 91 | 983.8 |
| 20260830054557 | 70 | 14 | 0.0 | 2.0 | 0.00 | 0.00 | 0.00 | 91 | 983.9 |
| 20260830054057 | 70 | 14 | 0.0 | 2.0 | 0.00 | 0.00 | 0.00 | 91 | 983.9 |
| 20260830053557 | 70 | 14 | 0.0 | 2.0 | 0.00 | 0.00 | 0.00 | 91 | 984.0 |
| 20260830053056 | 70 | 14 | 0.0 | 1.0 | 0.00 | 0.00 | 0.00 | 91 | 984.1 |
| 20260830052556 | 70 | 14 | 0.0 | 0.0 | 0.00 | 0.00 | 0.00 | 90 | 984.1 |
| 20260830052055 | 71 | 14 | 0.0 | 2.0 | 0.00 | 0.00 | 0.00 | 90 | 984.1 |
| 20260830051555 | 71 | 14 | 0.0 | 2.0 | 0.00 | 0.00 | 0.00 | 90 | 984.1 |
| 20260830051056 | 71 | 14 | 0.0 | 0.0 | 0.00 | 0.00 | 0.00 | 90 | 984.1 |
| 20260830050555 | 71 | 14 | 0.0 | 0.0 | 0.00 | 0.00 | 0.00 | 90 | 984.0 |
| 20260830050054 | 71 | 14 | 0.0 | 0.0 | 0.00 | 0.00 | 0.00 | 90 | 984.0 |
| 20260830045554 | 71 | 14 | 0.0 | 0.0 | 0.00 | 0.00 | 0.00 | 90 | 984.0 |
| 20260830045056 | 71 | 14 | 0.0 | 0.0 | 0.00 | 0.00 | 0.00 | 89 | 984.1 |
| 20260830044600 | 71 | 14 | 0.0 | 0.0 | 0.00 | 0.00 | 0.00 | 89 | 984.1 |
| 20260830044052 | 71 | 14 | 0.0 | 0.0 | 0.00 | 0.00 | 0.00 | 89 | 984.0 |
| 20260830043552 | 71 | 14 | 0.0 | 0.0 | 0.00 | 0.00 | 0.00 | 89 | 984.0 |
| 20260830043125 | 71 | 14 | 0.0 | 0.0 | 0.00 | 0.00 | 0.00 | 88 | 983.9 |
| 20260830042550 | 71 | 14 | 0.0 | 0.0 | 0.00 | 0.00 | 0.00 | 88 | 983.8 |
| 20260830042049 | 72 | 14 | 0.0 | 0.0 | 0.00 | 0.00 | 0.00 | 88 | 983.8 |
| 20260830041555 | 72 | 14 | 0.0 | 0.0 | 0.00 | 0.00 | 0.00 | 88 | 983.8 |